Startpagina
METAR-TAF:

METAR-TAF

Vliegvelden :

Productieplatform

K14-fa-1c, Nederland

breedte: 53-16-10N, lengte: 3-37-40E, hoogte: 28 m

Actueel weer

Dit bericht is 16 minuten geleden gemaakt, om 02:25 UTC
Wind 20 kt uit het oosten
Temperatuur 9°C
Vochtigheid 71%
Druk 1032 hPa
Zicht 10 km of meer

METAR: EHKV 180225Z AUTO 09020KT 9999 NCD 09/04 Q1032 W///H///

Tijdstip: 03:41 (02:41 UTC)


TAF: ontbreekt

Waarnemingen en weersverwachtingen van meer dan 4000 vliegvelden (METAR en TAF).

De beschikbare stations zijn de gele en rode punten op de kaart.

Ga met uw muis naar het station om de naam te zien.

Klik dan om waarnemingen en weersverwachtingen te zien.

kaart wijzigen: klik op de groene knoppen met een zwart kruis om in te zoomen, op de groene knop met een streepje om uit te zoomen of op de groene pijlen voor aangrenzende kaarten.


METAR-TAF: